Location: Caltech
(34.1382°N, 118.1253°W)
Time: 23:53:09
(UTC-07:00)

CZ-2C R/B - Visible Passes

Search period start: 29 May 2016 00:00
Search period end: 08 June 2016 00:00
Orbit: 705 x 907 km, 98.2° (Epoch: 29 May)

Date Brightness Start Highest point End Pass type
(mag) Time Alt. Az. Time Alt. Az. Time Alt. Az.
29 May 4.8 00:46:15 26° ENE 00:46:15 26° ENE 00:50:27 10° NNE visible
29 May 4.6 02:27:19 28° WNW 02:27:19 28° WNW 02:30:34 10° NNW visible
30 May 5.4 00:21:10 16° ENE 00:21:26 16° ENE 00:24:43 10° NNE visible
30 May 4.0 02:02:14 44° NW 02:02:14 44° NW 02:06:15 10° NNW visible
31 May 3.8 01:37:09 55° N 01:37:09 55° N 01:41:37 10° N visible
01 Jun 4.2 01:12:05 43° NE 01:12:05 43° NE 01:16:43 10° N visible
01 Jun 5.1 02:53:09 17° WNW 02:53:09 17° WNW 02:55:23 10° NW visible
02 Jun 4.8 00:47:00 28° ENE 00:47:00 28° ENE 00:51:32 10° NNE visible
02 Jun 4.5 02:28:04 29° WNW 02:28:04 29° WNW 02:31:33 10° NNW visible
03 Jun 5.3 00:21:56 17° ENE 00:22:21 17° ENE 00:25:53 10° NNE visible
03 Jun 4.0 02:03:00 46° NW 02:03:00 46° NW 02:07:15 10° NNW visible
04 Jun 3.7 01:37:56 60° N 01:37:56 60° N 01:42:38 10° N visible
05 Jun 4.1 01:12:52 46° NE 01:12:52 46° NE 01:17:46 10° N visible
05 Jun 5.1 02:53:56 17° WNW 02:53:56 17° WNW 02:56:19 10° NW visible
06 Jun 4.7 00:47:49 29° ENE 00:47:49 29° ENE 00:52:36 10° N visible
06 Jun 4.5 02:28:53 29° WNW 02:28:53 29° WNW 02:32:32 10° NNW visible
07 Jun 5.3 00:22:45 18° ENE 00:23:16 18° ENE 00:27:01 10° NNE visible
07 Jun 3.9 02:03:50 47° NW 02:03:50 47° NW 02:08:14 10° NNW visible
07 Jun 5.7 23:58:03 10° ENE 23:58:56 10° ENE 23:59:51 10° NE visible
